カタログに戻る

ORBCOMM FM 106

運用中通信LEO
NORAD 40088·PAYLOAD·🇺🇸 United States

打ち上げ Jul 14, 2014 から Cape Canaveral Space Force Station

Loading…

次のパス (今後24時間)

TLE

最新Source: Space-Track

元期: Sep 14, 2026, 05:17 UTC

1 40088U 14040C   26257.22039090  .00000618  00000-0  13150-3 0  9994
2 40088  47.0594 176.2014 0016448  16.0674 344.0736 14.70634417650284

AllMySatでORBCOMM FM 106をリアルタイム追跡

Download on the App Store